カタログに戻る

FENGYUN 1C DEB

運用中SSO
NORAD 31022·DEBRIS·🇨🇳 China

打ち上げ May 10, 1999 から Taiyuan Satellite Launch Center

Loading…

次のパス (今後24時間)

TLE

最新Source: Space-Track

元期: Sep 14, 2026, 12:27 UTC

1 31022U 99025BDQ 26257.51912204  .00000337  00000-0  29175-3 0  9999
2 31022  99.4858 152.3447 0110398 103.2958 258.0539 13.90715758658411

AllMySatでFENGYUN 1C DEBをリアルタイム追跡

Download on the App Store